Regional Weather Roundup
Issued by NWS

Home | Current Version | Previous Version | Text Only | Print | Product List | Glossary On
Versions: 1 2 3 4 5 6 7 8 9 10 11 12 13 14 15 16 17 18 19 20 21 22 23 24 25 26 27 28 29 30 31 32 33 34 35 36 37 38 39 40 41 42 43 44 45 46 47 48 49 50
000
ASUS45 KTFX 302119
RWRMT
MONTANA HOURLY WEATHER ROUNDUP
NATIONAL WEATHER SERVICE GREAT FALLS MT
319 PM MDT WED JUL 30 2014

NOTE: "FAIR" INDICATES FEW OR NO CLOUDS BELOW 12000 FEET WITH NO
SIGNIFICANT WEATHER AND/OR OBSTRUCTIONS TO VISIBILITY.

* THESE STATIONS ARE NOT UNDER NWS QUALITY CONTROL. THEY DO NOT
   REPORT WEATHER SUCH AS PRECIPITATION OR FOG.

MTZ001>007-043-302200-
WEST OF THE DIVIDE
CITY           SKY/WX    TMP DP  RH WIND       PRES   REMARKS
KALISPELL      PTSUNNY   88  52  29 S6        30.07F
MISSOULA       PTSUNNY   90  45  21 W8        30.09F
BUTTE          TSTM      79  39  24 E14       30.26S
MULLAN PASS    PTCLDY    81  37  21 VRB7      30.31F
* LINCOLN      N/A       89  41  19 N6G15      N/A
* LOOKOUT PASS N/A       85  41  21 N4G9       N/A
* POLSON       N/A       94  48  21 E3         N/A
* RONAN APT    PTCLDY    91  52  26 N/A        N/A
* SEELEY LAKE  N/A       85  39  20 NW6G16     N/A
* THOMP F APT  PTCLDY    76  40  27 SE4G12     N/A
* YAAK HILL    N/A       98  50  20 NW1        N/A
$$

MTZ008-052>055-302200-
SOUTHWEST MONTANA
CITY           SKY/WX    TMP DP  RH WIND       PRES   REMARKS
BOZEMAN        PTCLDY    88  34  15 S7        30.18F
DILLON         PTSUNNY   79  50  36 NW10      30.22F
W YELLOWSTONE  PTSUNNY   75  37  25 W5        30.35F
* THREE FORKS  PTCLDY    88  48  25 N6         N/A
* BOULDER HILL N/A       79  42  27 NE6G12     N/A
* MONIDA PASS  N/A       75  35  23 NE1G14     N/A
* RAYNOLDS PAS N/A       75  49  40 SE6G14     N/A
* WHITEHALL    N/A       91  48  23 S5         N/A
* WISE RIVER   N/A       69  40  35 N9G18      N/A
$$

MTZ009>010-012-014-046-048-049-054-302200-
EAST SLOPES AND CENTRAL MONTANA
CITY           SKY/WX    TMP DP  RH WIND       PRES   REMARKS
CUT BANK       PTSUNNY   91  43  19 N7        30.11F
GREAT FALLS    PTSUNNY   91  37  15 S9        30.11F
HELENA         PTCLDY    90  41  18 VRB5      30.13F
MALMSTROM AFB  PTCLDY    91  36  14 W9        30.11F
* CONRAD       PTSUNNY   88  52  29 N/A        N/A
* DEARBORN     N/A       89  42  19 VRB10G16    N/A
* EAST GLACIER N/A       77  46  33 E12G20     N/A
* ROGERS PASS  N/A       79  35  20 NW6G11     N/A
* SAINT MARY   N/A       83  39  21 NE4G10     N/A
* SWEET GRASS  N/A       88  40  18 S11G19     N/A
* WHITE SULPH  N/A       83  32  16 SW5G10     N/A
$$

MTZ011-013-016-021-035-040-045-047-050-051-302200-
NORTH CENTRAL MONTANA
CITY           SKY/WX    TMP DP  RH WIND       PRES   REMARKS
HAVRE          SUNNY     97  36  12 S8        30.06F
LEWISTOWN      SUNNY     88  37  16 VRB3      30.19F
* FORT BENTON  PTCLDY    97  36  12 SE7G18    30.06F
* CHESTER      N/A       92  34  13 SW3G13     N/A
* DENTON       N/A       91  43  19 SE17G23    N/A
* GEYSER       N/A       90  44  20 W6         N/A
* JUDITH GAP   N/A       83  44  25 S12G22     N/A
* LOMA         N/A       95  34  12 S14G25     N/A
$$

MTZ017>020-022>027-061-062-302200-
NORTHEAST MONTANA
CITY           SKY/WX    TMP DP  RH WIND       PRES   REMARKS
GLASGOW        SUNNY     91  45  20 S10       30.11F
GLENDIVE       SUNNY     84  52  33 E8        30.16F
JORDAN         SUNNY     93  39  15 NE8       30.13F
SIDNEY         SUNNY     84  55  37 E8        30.16F
WOLF POINT     SUNNY     90  50  25 VRB3      30.13F
* BEAVER HILL  N/A       82  50  33 N2G9       N/A
* CIRCLE       N/A       89  53  29 NW4        N/A
* LINDSAY DVD  N/A       84  47  28 E7         N/A
$$

MTZ028>042-056>058-302200-
SOUTHCENTRAL AND SOUTHEAST MONTANA
CITY           SKY/WX    TMP DP  RH WIND       PRES   REMARKS
BAKER          SUNNY     88  48  25 NE13G20   30.19S
BILLINGS       PTCLDY    88  39  18 SE15G21   30.19F
LIVINGSTON     PTCLDY    90  37  15 NE13G21   30.20F
MILES CITY     SUNNY     90  39  17 NE8       30.16F
* LAUREL APT   PTCLDY    90  39  17 E7         N/A
* ROUNDUP APT  SUNNY     90  37  15 E11G17     N/A
* ALZADA       N/A       83  42  23 VRB4G11    N/A
* HYSHAM       N/A       88  44  22 E10G20     N/A
* LAME DEER    N/A       81  40  23 NE5G15     N/A
* REED POINT   N/A       89  42  19 NE10G17    N/A
* ROSCOE HILL  N/A       82  37  20 E16G24     N/A
$$

REGIONAL REPORTS...DAKOTAS
CITY           SKY/WX    TMP DP  RH WIND       PRES   REMARKS
WILLISTON      SUNNY     84  46  26 NE10      30.15F
DICKINSON      PTCLDY    82  52  35 N7        30.15F
CROSBY         SUNNY     77  54  45 NE6       30.16F
TIOGA          SUNNY     75  50  42 NE6       30.19F
WATFORD CITY   SUNNY     81  46  29 N8G16     30.14F
BISMARCK       PTSUNNY   81  55  41 SE3       30.13S HI  81
GRAND FORKS    SUNNY     81  57  44 N7        30.06F HI  81
FARGO          SUNNY     82  54  38 NW10      30.08S
BUFFALO SD     SUNNY     82  48  31 NE14      30.12S
RAPID CITY     PTCLDY    84  43  24 NW12      30.17F
$$

REGIONAL REPORTS...WYOMING/IDAHO/WASHINGTON
CITY           SKY/WX    TMP DP  RH WIND       PRES   REMARKS
GILLETTE       PTSUNNY   81  36  20 N6        30.25R
SHERIDAN       PTCLDY    86  39  19 CALM      30.23F
YELLOWSTONE LA PTSUNNY   70  32  25 S5        30.47F
SALMON         CLOUDY    84  48  29 N12G17    30.11R
MULLAN PASS    PTCLDY    81  37  21 VRB7      30.31S
SAND POINT     SUNNY     86  55  35 E5        30.04F
SPOKANE        PTCLDY    93  39  15 S6        30.06F
$$

REGIONAL REPORTS...ALBERTA
CITY           SKY/WX    TMP DP  RH WIND       PRES   REMARKS
CALGARY        PTSUNNY   86  45  24 NE10      30.10S
LETHBRIDGE     PTSUNNY   90  52  27 SW5       30.06F
MEDICINE HAT   PTSUNNY   97  37  12 W8        30.03F
EDMONTON       SUNNY     86  63  46 VRB5      30.05S HI  87
WATERTON GATE  N/A       79  48  34 S8         N/A
CARDSTON       N/A       81  48  32 SW9        N/A
MILK RIVER     N/A       90  41  18 S6         N/A
$$

REGIONAL REPORTS...SASKATCHEWAN
CITY           SKY/WX    TMP DP  RH WIND       PRES   REMARKS
SWIFT CURRENT  SUNNY     88  54  31 S7        30.07F
MOOSE JAW      SUNNY     82  59  46 E13       30.12S HI  82
REGINA         N/A       75  61  62 S8        30.14S
VAL MARIE      N/A       91  45  20 S8         N/A
ASSINIBOIA     N/A       82  54  38 SE7        N/A
CORONACH       N/A       84  54  36 S6         N/A

$$




USA.gov is the U.S. government's official web portal to all federal, state and local government web resources and services.